This demonstration page uses our WeatherBlox Daily Observations layout. Learn more.

Hourly Observations for July 29, 2015

Temp ( °F °C ) Dew Point ( °F °C ) Humidity (%) Winds ( mph kmh ) Pressure ( in mb ) Visibility ( mi km ) Precip ( " mm )
12:15 am 00:15 Clear 62 16.8 56 13.5 81 81 N 6 9 30.03 1017 10 16.0934 0 0
12:35 am 00:35 Clear 61 16.1 56 13.4 84 84 N 6 9 30.06 1018 10 16.0934 0 0
12:55 am 00:55 Clear 59 15.1 56 13.1 88 88 N 6 9 30.09 1019 10 16.0934 0 0
1:15 am 01:15 Clear 59 15 55 12.9 87 87 NNE 6 9 30.09 1019 10 16.0934 0 0
1:35 am 01:35 Clear 58 14.5 55 12.7 89 89 NE 6 9 30.09 1019 10 16.0934 0 0
1:55 am 01:55 Clear 58 14.5 55 12.5 88 88 NE 5 7 30.09 1019 10 16.0934 0 0
2:15 am 02:15 Clear 58 14.5 55 12.5 88 88 NE 6 9 30.09 1019 10 16.0934 0 0
2:35 am 02:35 Clear 58 14.5 55 12.6 88 88 NE 3 6 30.09 1019 10 16.0934 0 0
2:55 am 02:55 Clear 60 15.5 55 12.9 85 85 Calm 30.09 1019 10 16.0934 0 0
3:15 am 03:15 Clear 58 14.6 54 12.4 87 87 Calm 30.09 1019 10 16.0934 0 0
3:35 am 03:35 Clear 58 14.5 55 12.5 88 88 N 3 6 30.09 1019 10 16.0934 0 0
3:55 am 03:55 Clear 58 14.3 54 12.3 88 88 Calm 30.12 1020 10 16.0934 0 0
4:15 am 04:15 Clear 58 14.5 54 12.4 87 87 Calm 30.12 1020 10 16.0934 0 0
4:35 am 04:35 Clear 56 13.6 53 11.8 89 89 Calm 30.12 1020 10 16.0934 0 0
4:55 am 04:55 Clear 55 13 53 11.9 93 93 Calm 30.15 1021 10 16.0934 0 0
5:15 am 05:15 Clear 56 13.1 54 12 93 93 Calm 30.15 1021 10 16.0934 0 0
5:35 am 05:35 Clear 55 12.8 53 11.4 91 91 WNW 3 6 30.15 1021 10 16.0934 0 0
5:55 am 05:55 Clear 55 13 53 11.7 92 92 WNW 5 7 30.18 1022 10 16.0934 0 0
6:15 am 06:15 Clear 56 13.1 53 11.4 90 90 NW 7 11 30.18 1022 10 16.0934 0 0
6:35 am 06:35 Sunny 56 13.2 53 11.6 90 90 N 6 9 30.21 1023 10 16.0934 0 0
6:55 am 06:55 Sunny 55 13 53 11.6 91 91 N 5 7 30.21 1023 10 16.0934 0 0
7:15 am 07:15 Sunny 56 13.6 54 12 90 90 Calm 30.21 1023 10 16.0934 0 0
7:35 am 07:35 Sunny 57 14 54 12.1 88 88 Calm 30.24 1024 10 16.0934 0 0
7:55 am 07:55 Sunny 59 14.9 55 13 89 89 WNW 3 6 30.21 1023 10 16.0934 0 0
8:15 am 08:15 Sunny 60 15.7 55 13 84 84 W 3 6 30.24 1024 10 16.0934 0 0
8:35 am 08:35 Sunny 61 16.2 56 13.1 82 82 W 5 7 30.24 1024 10 16.0934 0 0
8:55 am 08:55 Sunny 64 18 56 13.3 74 74 Calm 30.24 1024 10 16.0934 0 0
9:15 am 09:15 Sunny 67 19.2 56 13.6 70 70 Calm 30.21 1023 10 16.0934 0 0
9:35 am 09:35 Sunny 69 20.4 58 14.6 69 69 Calm 30.21 1023 10 16.0934 0 0
9:55 am 09:55 Sunny 71 21.8 55 12.8 57 57 NE 3 6 30.15 1021 10 16.0934 0 0
10:15 am 10:15 Sunny 73 22.9 53 11.9 50 50 NE 5 7 30.15 1021 10 16.0934 0 0
10:35 am 10:35 Sunny 75 23.7 52 11 45 45 ENE 7 11 30.15 1021 10 16.0934 0 0
10:55 am 10:55 Sunny 75 23.7 53 11.6 47 47 NE 9 15 30.15 1021 10 16.0934 0 0
11:15 am 11:15 Sunny 76 24.6 51 10.7 42 42 ENE 8 13 30.12 1020 10 16.0934 0 0
11:35 am 11:35 Sunny 77 25.1 51 10.3 39 39 ENE 10 17 30.12 1020 10 16.0934 0 0
11:55 am 11:55 Sunny 78 25.3 50 9.8 38 38 E 9 15 30.12 1020 10 16.0934 0 0
12:15 pm 12:15 Sunny 78 25.7 47 8.6 34 34 ENE 10 17 30.09 1019 10 16.0934 0 0
12:35 pm 12:35 Sunny 77 24.9 50 9.8 39 39 ENE 12 19 30.12 1020 10 16.0934 0 0
12:55 pm 12:55 Sunny 76 24.5 49 9.6 39 39 ENE 9 15 30.12 1020 10 16.0934 0 0
1:15 pm 13:15 Sunny 78 25.4 49 9.3 36 36 E 7 11 30.12 1020 10 16.0934 0 0
1:35 pm 13:35 Sunny 77 24.9 48 9 37 37 E 6 9 30.15 1021 10 16.0934 0 0
1:55 pm 13:55 Partly Cloudy 76 24.6 49 9.6 39 39 E 6 9 30.15 1021 10 16.0934 0 0
2:15 pm 14:15 Partly Cloudy 76 24.2 53 11.5 45 45 E 5 7 30.12 1020 10 16.0934 0 0
2:35 pm 14:35 Sunny 76 24.5 51 10.8 42 42 SE 3 6 30.15 1021 10 16.0934 0 0
2:55 pm 14:55 Sunny 76 24.5 51 10.5 41 41 SE 3 6 30.15 1021 10 16.0934 0 0
3:15 pm 15:15 Sunny 76 24.5 50 10.2 41 41 Calm 30.12 1020 10 16.0934 0 0
3:35 pm 15:35 Sunny 77 25.1 49 9.4 37 37 Calm 30.12 1020 10 16.0934 0 0
3:55 pm 15:55 Sunny 78 25.8 49 9.6 36 36 ENE 3 6 30.09 1019 10 16.0934 0 0
4:15 pm 16:15 Sunny 80 26.5 51 10.6 37 37 Calm 30.09 1019 10 16.0934 0 0
4:35 pm 16:35 Sunny 80 26.5 49 9.2 34 34 SE 3 6 30.09 1019 10 16.0934 0 0
4:55 pm 16:55 Sunny 80 26.5 49 9.6 35 35 NE 3 6 30.09 1019 10 16.0934 0 0
5:15 pm 17:15 Sunny 80 26.5 52 11.2 38 38 NNE 5 7 30.09 1019 10 16.0934 0 0
5:35 pm 17:35 Sunny 80 26.5 49 9.6 35 35 Calm 30.09 1019 10 16.0934 0 0
5:55 pm 17:55 Sunny 80 26.4 50 9.8 35 35 E 5 7 30.09 1019 10 16.0934 0 0
6:15 pm 18:15 Sunny 78 25.7 50 9.8 37 37 SE 6 9 30.06 1018 10 16.0934 0 0
6:35 pm 18:35 Sunny 78 25.6 49 9.5 36 36 ESE 3 6 30.06 1018 10 16.0934 0 0
6:55 pm 18:55 Sunny 77 25.1 55 12.7 46 46 E 5 7 30.06 1018 10 16.0934 0 0
7:15 pm 19:15 Sunny 78 25.5 55 12.8 45 45 E 7 11 30.06 1018 10 16.0934 0 0
7:35 pm 19:35 Sunny 76 24.7 56 13.2 49 49 ESE 6 9 30.06 1018 10 16.0934 0 0
7:55 pm 19:55 Sunny 75 23.9 58 14.3 55 55 ESE 5 7 30.09 1019 10 16.0934 0 0
8:15 pm 20:15 Sunny 73 22.9 59 15 61 61 ENE 5 7 30.09 1019 10 16.0934 0 0
8:35 pm 20:35 Sunny 72 22 58 14.6 63 63 E 5 7 30.09 1019 10 16.0934 0 0
8:55 pm 20:55 Sunny 69 20.6 59 15 70 70 ESE 6 9 30.12 1020 10 16.0934 0 0
9:15 pm 21:15 Clear 67 19.4 58 14.7 74 74 E 6 9 30.12 1020 10 16.0934 0 0
9:35 pm 21:35 Clear 65 18.4 57 14.1 76 76 ESE 6 9 30.12 1020 10 16.0934 0 0
9:55 pm 21:55 Clear 63 17.1 57 14.1 83 83 ESE 5 7 30.18 1022 7 11.26538 0 0
10:15 pm 22:15 Clear 62 16.7 57 13.7 83 83 ESE 5 7 30.18 1022 7 11.26538 0 0
10:35 pm 22:35 Clear 62 16.6 55 13 79 79 ESE 3 6 30.18 1022 10 16.0934 0 0
10:55 pm 22:55 Clear 63 17.3 56 13.2 77 77 SSE 3 6 30.18 1022 10 16.0934 0 0
11:15 pm 23:15 Clear 62 16.6 55 12.9 79 79 Calm 30.18 1022 10 16.0934 0 0
11:35 pm 23:35 Clear 61 16 56 13.5 85 85 Calm 30.18 1022 10 16.0934 0 0
11:55 pm 23:55 Clear 62 16.6 53 11.8 73 73 S 3 6 30.18 1022 10 16.0934 0 0

Powered by AerisWeather